Location: Newark
(54.4333°N, 18.5500°E)
Time: 01:48:10
(UTC+00:00)

N. Korean satellite - Visible Passes

Search period start: 11 December 2019 00:00
Search period end: 21 December 2019 00:00
Orbit: 455 x 506 km, 97.2° (Epoch: 10 December)

Date Brightness Start Highest point End Pass type
(mag) Time Alt. Az. Time Alt. Az. Time Alt. Az.
11 Dec 7.3 04:34:06 10° NNE 04:37:37 52° E 04:41:02 10° S visible
11 Dec 8.0 06:08:11 10° NNW 06:10:41 18° WNW 06:13:08 10° WSW visible
11 Dec 6.7 15:15:38 10° SSE 15:19:16 58° ENE 15:22:54 10° N visible
11 Dec 9.8 16:50:35 10° SW 16:53:00 16° W 16:55:25 10° NW visible
12 Dec 8.6 04:08:54 10° NNE 04:12:02 28° E 04:15:06 10° SSE visible
12 Dec 7.3 05:42:17 10° N 05:45:26 29° WNW 05:48:31 10° SW visible
12 Dec 8.9 16:24:08 10° SSW 16:27:21 28° W 16:30:35 10° NW visible
13 Dec 9.6 03:44:05 10° NE 03:46:23 16° E 03:48:39 10° SE visible
13 Dec 6.6 05:16:38 10° N 05:20:07 52° WNW 05:23:31 10° SSW visible
13 Dec 7.6 15:58:12 10° S 16:01:48 50° W 16:05:23 10° NNW visible
14 Dec 6.5 04:51:08 10° NNE 04:54:41 82° ESE 04:58:10 10° SSW visible
14 Dec 6.6 15:32:37 10° SSE 15:36:20 88° ENE 15:39:59 10° NNW visible
14 Dec 10.1 17:09:05 10° WSW 17:10:16 11° W 17:11:27 10° WNW visible
15 Dec 7.8 04:25:48 10° NNE 04:29:11 42° E 04:32:30 10° S visible
15 Dec 7.8 05:59:39 10° NNW 06:02:21 21° WNW 06:05:02 10° WSW visible
15 Dec 6.8 15:07:22 10° SE 15:10:55 48° ENE 15:14:27 10° N visible
15 Dec 9.5 16:41:50 10° SW 16:44:33 19° W 16:47:16 10° NW visible
16 Dec 9.0 04:00:41 10° NE 04:03:35 23° E 04:06:25 10° SSE visible
16 Dec 7.1 05:33:50 10° N 05:37:05 35° WNW 05:40:16 10° SW visible
16 Dec 8.5 16:15:35 10° SSW 16:18:56 33° W 16:22:17 10° NNW visible
17 Dec 9.8 03:36:05 10° ENE 03:37:53 13° E 03:39:40 10° ESE visible
17 Dec 6.4 05:08:13 10° N 05:11:43 65° WNW 05:15:09 10° SSW visible
17 Dec 7.2 15:49:46 10° S 15:53:24 61° WSW 15:57:01 10° NNW visible
18 Dec 6.8 04:42:45 10° NNE 04:46:16 66° ESE 04:49:42 10° S visible
18 Dec 8.2 06:17:10 10° NNW 06:19:14 15° WNW 06:21:17 10° W visible
18 Dec 6.5 15:24:18 10° SSE 15:27:57 72° ENE 15:31:34 10° N visible
18 Dec 9.9 16:59:57 10° WSW 17:01:47 13° W 17:03:37 10° WNW visible
19 Dec 8.2 04:17:29 10° NNE 04:20:44 34° E 04:23:54 10° SSE visible
19 Dec 7.6 05:51:08 10° N 05:54:01 24° WNW 05:56:51 10° WSW visible
19 Dec 9.2 16:33:10 10° SSW 16:36:06 23° W 16:39:02 10° NW visible
20 Dec 9.3 03:52:29 10° NE 03:55:05 19° E 03:57:40 10° SE visible
20 Dec 6.8 05:25:23 10° N 05:28:41 42° WNW 05:31:58 10° SW visible
20 Dec 8.1 16:07:03 10° S 16:10:30 39° W 16:13:56 10° NNW visible
